[Iaude] MPEC S179: 2017 SV14 [a=1.31,e=0.09,i=19.8,H=23.1]

mpec at mpcdb1.cfa.harvard.edu mpec at mpcdb1.cfa.harvard.edu
Wed Sep 27 12:37:17 EDT 2017


M.P.E.C. 2017-S179                               Issued 2017 Sept. 27, 16:33 UT
 
     The Minor Planet Electronic Circulars contain information on unusual
         minor planets and routine data on comets.  They are published
    on behalf of Division F of the International Astronomical Union by the
          Minor Planet Center, Smithsonian Astrophysical Observatory,
                          Cambridge, MA 02138, U.S.A.

             Prepared using the Tamkin Foundation Computer Network

                              MPC at CFA.HARVARD.EDU
            URL http://www.minorplanetcenter.net/    ISSN 1523-6714


                                   2017 SV14
 
Observations:
     K17S14V* C2017 09 24.32149 01 56 12.15 +16 49 38.0          21.1 VqES179G96
     K17S14V  C2017 09 24.32721 01 56 12.28 +16 49 10.1          22.5 VqES179G96
     K17S14V  C2017 09 24.33305 01 56 12.43 +16 48 42.8          22.1 VqES179G96
     K17S14V  C2017 09 24.33895 01 56 12.61 +16 48 14.0          21.0 VqES179G96
     K17S14V  C2017 09 24.46387 01 56 15.81 +16 38 06.7          20.9 VqES179G96
     K17S14V  C2017 09 24.46524 01 56 15.89 +16 37 59.4          20.6 VqES179G96
     K17S14V  C2017 09 25.45082 01 56 52.91 +15 17 22.1          21.3 RoES179926
     K17S14V  C2017 09 25.45874 01 56 53.06 +15 16 42.7          21.3 RoES179926
     K17S14V  C2017 09 25.46666 01 56 53.27 +15 16 03.8          22.0 RoES179926
     K17S14V KC2017 09 26.03122 01 57 13.13 +14 29 01.2          20.5 RvES179B18
     K17S14V KC2017 09 26.03234 01 57 13.15 +14 28 55.9          20.6 RvES179B18
     K17S14V KC2017 09 26.03346 01 57 13.16 +14 28 50.3          21.2 RvES179B18
     K17S14V  C2017 09 26.23006101 57 22.35 +14 12 27.0          21.2 GUES179H01
     K17S14V  C2017 09 26.23544301 57 22.49 +14 12 00.0          21.6 GUES179H01
     K17S14V  C2017 09 26.24414101 57 22.69 +14 11 16.5          21.2 GUES179H01
     K17S14V  C2017 09 26.25197001 57 22.87 +14 10 37.4          21.4 GUES179H01
     K17S14V  C2017 09 27.36715 01 57 56.19 +12 36 17.9          21.4 VqES179I52
     K17S14V  C2017 09 27.36924 01 57 56.26 +12 36 07.9          21.4 VqES179I52
     K17S14V  C2017 09 27.37132 01 57 56.30 +12 35 55.3          21.4 VqES179I52
     K17S14V  C2017 09 27.37340 01 57 56.29 +12 35 45.1          21.4 VqES179I52
 
Observer details:
926 Tenagra II Observatory.  Observers M. Schwartz, P. R. Holvorcem.  Measurer
    M. Schwartz.  0.81-m f/7 Ritchey-Chretien + CCD.
B18 Terskol.  Observers A. Sergeev, M. Andreev, A. Bondar, V. Godunova.
    Measurer M. Andreev.
G96 Mt. Lemmon Survey.  Observer A. R. Gibbs.  Measurers E. J. Christensen,
    D. C. Fuls, A. R. Gibbs, A. D. Grauer, J. A. Johnson, R. A. Kowalski,
    S. M. Larson, G. J. Leonard, R. G. Matheny, R. L. Seaman, F. C. Shelly.
    1.5-m reflector + 10K CCD.
H01 Magdalena Ridge Observatory, Socorro.  Observers W. H. Ryan, E. V. Ryan.
    Measurer W. H. Ryan.  2.4-m f/8.9 reflector + CCD.
I52 Steward Observatory, Mt. Lemmon Station.  Observer D. C. Fuls.  Measurers
    E. J. Christensen, D. C. Fuls, A. R. Gibbs, A. D. Grauer, J. A. Johnson,
    R. A. Kowalski, S. M. Larson, G. J. Leonard, R. G. Matheny, R. L. Seaman,
    F. C. Shelly.  1.0-m reflector + CCD.
 
Orbital elements:
2017 SV14                                                Earth MOID = 0.2054 AU
Epoch 2017 Sept. 4.0 TT = JDT 2458000.5                 MPC
M  11.06633              (2000.0)            P               Q
n   0.65806686     Peri.  148.31942     +0.92086189     +0.38588309
a   1.3090494      Node   189.49401     -0.38910176     +0.91864155
e   0.0875477      Incl.   19.75313     +0.02476277     +0.08480534
P   1.50           H   23.1           G   0.15           U   8
Residuals in seconds of arc
170924 G96  0.2+  0.1-    170925 926  0.4-  0.0     170926 H01  0.0   0.2-
170924 G96  0.1-  0.4-    170925 926  0.1-  0.6+    170926 H01  0.0   0.1-
170924 G96  0.1-  0.5+    170926 B18  0.0   0.2-    170927 I52  0.2-  0.4+
170924 G96  0.2+  0.2+    170926 B18  0.1-  0.1+    170927 I52  0.3+  1.1+
170924 G96  0.2-  0.1+    170926 B18  0.3-  0.1+    170927 I52  0.5+  0.9-
170924 G96  0.4+  0.5-    170926 H01  0.1-  0.0     170927 I52  0.2-  0.4-
170925 926  0.0   0.1-    170926 H01  0.1+  0.1-

Ephemeris:
2017 SV14                a,e,i = 1.31, 0.09, 20                  q = 1.1944
Date    TT    R. A. (2000) Decl.     Delta      r     Elong.  Phase     V
2017 08 28    01 16 46.4 +40 15 03   0.3327  1.1953   116.3    49.3    22.9
...
2017 09 12    01 43 27.1 +30 42 55   0.2683  1.2000   131.1    39.2    22.2
...
2017 09 20    01 52 46.4 +22 20 33   0.2424  1.2040   141.7    31.1    21.8
...
2017 09 26    01 57 13.0 +14 32 01   0.2297  1.2078   150.4    24.2    21.4
2017 09 27    01 57 45.1 +13 07 50   0.2283  1.2084   151.8    23.0    21.4
2017 09 28    01 58 13.9 +11 42 19   0.2271  1.2091   153.2    21.9    21.4
...
2017 10 04    02 00 01.1 +02 53 30   0.2245  1.2136   159.8    16.5    21.2
...
2017 10 12    01 59 56.0 -08 28 21   0.2340  1.2203   159.7    16.5    21.3
...
2017 10 27    01 55 58.2 -23 53 46   0.2858  1.2350   143.3    28.7    22.1

A. U. Tomatic                (C) Copyright 2017 MPC           M.P.E.C. 2017-S179




More information about the Iaude mailing list